Location: *
(24.1434°N, 56.8729°E)
Time: 18:19:23
(UTC+00:00)

Cosmos 2228 - Pass Details

Date: 09 April 2020
Orbit: 588 x 619 km, 82.5° (Epoch: 05 June)

Event Time Altitude Azimuth Distance (km) Brightness Sun altitude
Rises 15:46:42 0° 197° (SSW) 2,817 6.4 -17.4°
Reaches altitude 10° 15:48:57 10° 204° (SSW) 1,923 5.7 -17.9°
Maximum altitude 15:53:01 45° 277° (W) 824 4.1 -18.8°
Drops below altitude 10° 15:57:09 10° 350° (N) 1,950 6.0 -19.7°
Sets 15:59:27 0° 357° (N) 2,861 6.8 -20.2°
